Time,TemperatureF,DewpointF,PressureIn,WindDirection,WindDirectionDegrees,WindSpeedMPH,WindSpeedGustMPH,Humidity,HourlyPrecipIn,Conditions,Clouds,dailyrainin,SoftwareType,DateUTC
2013-05-12 00:01:00,63.5,-99.9,25.25,SSE,148,2.0,6.7,-999,0.00,,,-99.99,FreeWX 2.04,2013-05-12 06:01:00,
2013-05-12 00:06:00,63.7,-99.9,25.25,SSE,167,4.0,6.9,-999,0.00,,,-99.99,FreeWX 2.04,2013-05-12 06:06:00,
2013-05-12 00:11:00,63.3,-99.9,25.25,South,169,4.0,5.8,-999,0.00,,,-99.99,FreeWX 2.04,2013-05-12 06:11:00,
2013-05-12 00:16:00,63.0,-99.9,25.25,South,169,5.0,6.7,-999,0.00,,,-99.99,FreeWX 2.04,2013-05-12 06:16:00,
2013-05-12 00:21:00,63.0,-99.9,25.25,SSE,158,5.0,7.8,-999,0.00,,,-99.99,FreeWX 2.04,2013-05-12 06:21:00,
2013-05-12 00:26:00,63.5,-99.9,25.25,SSE,153,5.0,7.8,-999,0.00,,,-99.99,FreeWX 2.04,2013-05-12 06:26:00,
2013-05-12 00:31:00,63.3,-99.9,25.25,SSE,151,5.0,8.7,-999,0.00,,,-99.99,FreeWX 2.04,2013-05-12 06:31:00,
2013-05-12 00:36:00,63.1,-99.9,25.25,SSE,154,5.0,6.7,-999,0.00,,,-99.99,FreeWX 2.04,2013-05-12 06:36:00,
2013-05-12 00:41:00,63.0,-99.9,25.25,SSE,160,4.0,7.4,-999,0.00,,,-99.99,FreeWX 2.04,2013-05-12 06:41:00,
2013-05-12 00:46:00,62.8,-99.9,25.25,SSE,154,5.0,6.9,-999,0.00,,,-99.99,FreeWX 2.04,2013-05-12 06:46:00,
2013-05-12 00:51:00,62.8,-99.9,25.25,SSE,150,5.0,7.8,-999,0.00,,,-99.99,FreeWX 2.04,2013-05-12 06:51:00,
2013-05-12 00:56:00,63.5,-99.9,25.25,SSE,156,5.0,7.8,-999,0.00,,,-99.99,FreeWX 2.04,2013-05-12 06:56:00,
2013-05-12 01:01:00,63.0,-99.9,25.25,SSE,152,4.0,6.3,-999,0.00,,,-99.99,FreeWX 2.04,2013-05-12 07:01:00,
2013-05-12 01:06:00,62.2,-99.9,25.25,SSE,147,3.0,4.9,-999,0.00,,,-99.99,FreeWX 2.04,2013-05-12 07:06:00,
2013-05-12 01:11:00,62.2,-99.9,25.25,SE,133,2.0,5.8,-999,0.00,,,-99.99,FreeWX 2.04,2013-05-12 07:11:00,
2013-05-12 01:16:00,62.4,7.2,25.25,ESE,122,3.0,6.3,11,0.00,,,-99.99,FreeWX 2.04,2013-05-12 07:16:00,
2013-05-12 01:21:00,62.4,7.2,25.25,SE,127,4.0,6.9,11,0.00,,,-99.99,FreeWX 2.04,2013-05-12 07:21:00,
2013-05-12 01:26:00,62.2,7.2,25.25,SSE,161,4.0,4.9,11,0.00,,,-99.99,FreeWX 2.04,2013-05-12 07:26:00,
2013-05-12 01:31:00,62.6,7.3,25.25,South,190,2.0,3.6,11,0.00,,,-99.99,FreeWX 2.04,2013-05-12 07:31:00,
2013-05-12 01:36:00,62.4,7.2,25.25,South,189,2.0,5.8,11,0.00,,,-99.99,FreeWX 2.04,2013-05-12 07:36:00,
2013-05-12 01:41:00,63.0,7.7,25.25,South,173,3.0,6.3,11,0.00,,,-99.99,FreeWX 2.04,2013-05-12 07:41:00,
2013-05-12 01:47:00,62.4,7.2,25.25,SSE,147,3.0,4.9,11,0.00,,,-99.99,FreeWX 2.04,2013-05-12 07:47:00,
2013-05-12 01:52:00,61.7,6.6,25.25,SSE,164,3.0,5.8,11,0.00,,,-99.99,FreeWX 2.04,2013-05-12 07:52:00,
2013-05-12 01:57:00,61.3,6.4,25.25,South,184,4.0,5.4,11,0.00,,,-99.99,FreeWX 2.04,2013-05-12 07:57:00,
2013-05-12 02:02:00,60.6,11.1,25.25,SSW,192,3.0,4.5,14,0.00,,,-99.99,FreeWX 2.04,2013-05-12 08:02:00,
2013-05-12 02:07:00,59.5,10.4,25.25,SW,234,2.0,5.4,14,0.00,,,-99.99,FreeWX 2.04,2013-05-12 08:07:00,
2013-05-12 02:12:00,57.9,19.4,25.25,NW,309,4.0,5.8,22,0.00,,,-99.99,FreeWX 2.04,2013-05-12 08:12:00,
2013-05-12 02:17:00,56.7,22.1,25.25,North,9,3.0,4.5,26,0.00,,,-99.99,FreeWX 2.04,2013-05-12 08:17:00,
2013-05-12 02:22:00,56.1,24.3,25.25,NNE,13,2.0,5.4,29,0.00,,,-99.99,FreeWX 2.04,2013-05-12 08:22:00,
2013-05-12 02:27:00,55.8,25.5,25.25,NNE,13,1.0,3.1,31,0.00,,,-99.99,FreeWX 2.04,2013-05-12 08:27:00,
2013-05-12 02:32:00,56.1,25.9,25.25,NNE,13,1.0,3.6,31,0.00,,,-99.99,FreeWX 2.04,2013-05-12 08:32:00,
2013-05-12 02:37:00,56.1,26.6,25.25,NNE,13,2.0,4.0,32,0.00,,,-99.99,FreeWX 2.04,2013-05-12 08:37:00,
2013-05-12 02:42:00,55.6,27.0,25.25,NNE,18,2.0,5.8,33,0.00,,,-99.99,FreeWX 2.04,2013-05-12 08:42:00,
2013-05-12 02:47:00,55.8,27.9,25.25,NNE,28,4.0,6.3,34,0.00,,,-99.99,FreeWX 2.04,2013-05-12 08:47:00,
2013-05-12 02:52:00,57.0,26.6,25.25,NNE,31,4.0,6.7,31,0.00,,,-99.99,FreeWX 2.04,2013-05-12 08:52:00,
2013-05-12 02:57:00,58.1,25.2,25.25,NNE,32,3.0,4.9,28,0.00,,,-99.99,FreeWX 2.04,2013-05-12 08:57:00,
2013-05-12 03:02:00,58.1,24.3,25.25,NNE,33,2.0,6.3,27,0.00,,,-99.99,FreeWX 2.04,2013-05-12 09:02:00,
2013-05-12 03:07:00,58.1,24.3,25.25,North,352,4.0,8.7,27,0.00,,,-99.99,FreeWX 2.04,2013-05-12 09:07:00,
2013-05-12 03:12:00,57.4,24.6,25.25,NNW,335,5.0,6.9,28,0.00,,,-99.99,FreeWX 2.04,2013-05-12 09:12:00,
2013-05-12 03:17:00,56.1,26.6,25.25,NNE,15,4.0,5.8,32,0.00,,,-99.99,FreeWX 2.04,2013-05-12 09:17:00,
2013-05-12 03:22:00,55.4,28.2,25.25,NNE,27,4.0,6.3,35,0.00,,,-99.99,FreeWX 2.04,2013-05-12 09:22:00,
2013-05-12 03:27:00,55.2,28.8,25.25,NNE,29,4.0,6.3,36,0.00,,,-99.99,FreeWX 2.04,2013-05-12 09:27:00,
2013-05-12 03:32:00,54.9,28.4,25.25,NNE,32,3.0,6.3,36,0.00,,,-99.99,FreeWX 2.04,2013-05-12 09:32:00,
2013-05-12 03:37:00,54.7,28.2,25.25,NNE,32,4.0,4.9,36,0.00,,,-99.99,FreeWX 2.04,2013-05-12 09:37:00,
2013-05-12 03:42:00,54.5,28.8,25.25,NNE,32,4.0,6.3,37,0.00,,,-99.99,FreeWX 2.04,2013-05-12 09:42:00,
2013-05-12 03:47:00,54.7,28.9,25.25,NNE,22,5.0,6.9,37,0.00,,,-99.99,FreeWX 2.04,2013-05-12 09:47:00,
2013-05-12 03:52:00,55.9,29.3,25.25,North,356,4.0,5.4,36,0.00,,,-99.99,FreeWX 2.04,2013-05-12 09:52:00,
2013-05-12 03:57:00,55.8,28.6,25.25,NNW,342,2.0,4.5,35,0.00,,,-99.99,FreeWX 2.04,2013-05-12 09:57:00,
2013-05-12 04:02:00,54.1,29.1,25.25,North,352,2.0,5.4,38,0.00,,,-99.99,FreeWX 2.04,2013-05-12 10:02:00,
2013-05-12 04:07:00,53.4,29.1,25.25,North,7,1.0,3.1,39,0.00,,,-99.99,FreeWX 2.04,2013-05-12 10:07:00,
2013-05-12 04:12:00,53.4,29.1,25.25,North,-999,0.0,4.0,39,0.00,,,-99.99,FreeWX 2.04,2013-05-12 10:12:00,
2013-05-12 04:17:00,53.2,28.9,25.25,NNE,12,1.0,3.6,39,0.00,,,-99.99,FreeWX 2.04,2013-05-12 10:17:00,
2013-05-12 04:22:00,53.6,29.3,25.25,NNE,12,1.0,4.0,39,0.00,,,-99.99,FreeWX 2.04,2013-05-12 10:22:00,
2013-05-12 04:27:00,54.0,28.9,25.25,NNE,12,2.0,4.0,38,0.00,,,-99.99,FreeWX 2.04,2013-05-12 10:27:00,
2013-05-12 04:32:00,54.1,29.1,25.25,NNE,12,2.0,4.5,38,0.00,,,-99.99,FreeWX 2.04,2013-05-12 10:32:00,
2013-05-12 04:37:00,54.0,28.9,25.25,NNE,14,3.0,5.4,38,0.00,,,-99.99,FreeWX 2.04,2013-05-12 10:37:00,
2013-05-12 04:42:00,54.0,28.9,25.25,North,8,3.0,11.0,38,0.00,,,-99.99,FreeWX 2.04,2013-05-12 10:42:00,
2013-05-12 04:47:00,53.1,29.3,25.25,WNW,291,6.0,12.1,40,0.00,,,-99.99,FreeWX 2.04,2013-05-12 10:47:00,
2013-05-12 04:52:00,54.1,29.1,25.25,West,265,6.0,8.7,38,0.00,,,-99.99,FreeWX 2.04,2013-05-12 10:52:00,
2013-05-12 04:57:00,53.2,28.9,25.25,WNW,286,4.0,4.5,39,0.00,,,-99.99,FreeWX 2.04,2013-05-12 10:57:00,
2013-05-12 05:02:00,52.9,28.6,25.25,WNW,293,2.0,3.6,39,0.00,,,-99.99,FreeWX 2.04,2013-05-12 11:02:00,
2013-05-12 05:07:00,52.3,29.3,25.25,NW,321,1.0,5.8,41,0.00,,,-99.99,FreeWX 2.04,2013-05-12 11:07:00,
2013-05-12 05:12:00,51.8,29.5,25.28,NE,47,2.0,4.0,42,0.00,,,-99.99,FreeWX 2.04,2013-05-12 11:12:00,
2013-05-12 05:17:00,51.3,28.9,25.28,ENE,61,2.0,3.6,42,0.00,,,-99.99,FreeWX 2.04,2013-05-12 11:17:00,
2013-05-12 05:22:00,51.3,29.5,25.28,North,-999,0.0,0.0,43,0.00,,,-99.99,FreeWX 2.04,2013-05-12 11:22:00,
2013-05-12 05:27:00,51.1,29.3,25.28,North,-999,0.0,0.0,43,0.00,,,-99.99,FreeWX 2.04,2013-05-12 11:27:00,
2013-05-12 05:32:00,51.1,30.0,25.28,North,-999,0.0,0.0,44,0.00,,,-99.99,FreeWX 2.04,2013-05-12 11:32:00,
2013-05-12 05:37:00,51.4,29.1,25.28,North,-999,0.0,0.0,42,0.00,,,-99.99,FreeWX 2.04,2013-05-12 11:37:00,
2013-05-12 05:42:00,51.6,29.8,25.28,North,-999,0.0,0.0,43,0.00,,,-99.99,FreeWX 2.04,2013-05-12 11:42:00,
2013-05-12 05:47:00,51.8,29.5,25.28,North,-999,0.0,0.0,42,0.00,,,-99.99,FreeWX 2.04,2013-05-12 11:47:00,
2013-05-12 05:52:00,52.5,30.0,25.28,North,-999,0.0,4.0,42,0.00,,,-99.99,FreeWX 2.04,2013-05-12 11:52:00,
2013-05-12 05:57:00,50.5,29.5,25.28,ENE,61,2.0,4.9,44,0.00,,,-99.99,FreeWX 2.04,2013-05-12 11:57:00,
2013-05-12 06:02:00,50.4,29.8,25.28,ENE,61,3.0,4.9,45,0.00,,,-99.99,FreeWX 2.04,2013-05-12 12:02:00,
2013-05-12 06:07:00,51.6,30.9,25.28,ENE,61,3.0,4.9,45,0.00,,,-99.99,FreeWX 2.04,2013-05-12 12:07:00,
2013-05-12 06:12:00,51.3,30.0,25.28,ENE,61,2.0,4.5,44,0.00,,,-99.99,FreeWX 2.04,2013-05-12 12:12:00,
2013-05-12 06:18:00,49.6,29.7,25.28,ENE,61,1.0,3.6,46,0.00,,,-99.99,FreeWX 2.04,2013-05-12 12:18:00,
2013-05-12 06:23:00,49.1,30.2,25.28,North,-999,0.0,0.0,48,0.00,,,-99.99,FreeWX 2.04,2013-05-12 12:23:00,
2013-05-12 06:28:00,50.2,31.3,25.28,North,-999,0.0,0.0,48,0.00,,,-99.99,FreeWX 2.04,2013-05-12 12:28:00,
2013-05-12 06:33:00,50.0,30.6,25.28,North,-999,0.0,0.0,47,0.00,,,-99.99,FreeWX 2.04,2013-05-12 12:33:00,
2013-05-12 06:38:00,50.4,30.9,25.28,North,-999,0.0,4.5,47,0.00,,,-99.99,FreeWX 2.04,2013-05-12 12:38:00,
2013-05-12 06:43:00,51.1,31.1,25.28,ENE,61,2.0,5.4,46,0.00,,,-99.99,FreeWX 2.04,2013-05-12 12:43:00,
2013-05-12 06:48:00,51.1,31.1,25.28,ENE,61,2.0,3.6,46,0.00,,,-99.99,FreeWX 2.04,2013-05-12 12:48:00,
2013-05-12 06:53:00,51.1,30.6,25.28,North,-999,0.0,0.0,45,0.00,,,-99.99,FreeWX 2.04,2013-05-12 12:53:00,
2013-05-12 06:58:00,50.9,31.5,25.28,ENE,61,1.0,4.5,47,0.00,,,-99.99,FreeWX 2.04,2013-05-12 12:58:00,
2013-05-12 07:03:00,51.3,32.2,25.28,ENE,60,2.0,3.6,48,0.00,,,-99.99,FreeWX 2.04,2013-05-12 13:03:00,
2013-05-12 07:08:00,51.4,31.8,25.28,North,-999,0.0,0.0,47,0.00,,,-99.99,FreeWX 2.04,2013-05-12 13:08:00,
2013-05-12 07:13:00,53.2,33.6,25.28,North,-999,0.0,0.0,47,0.00,,,-99.99,FreeWX 2.04,2013-05-12 13:13:00,
2013-05-12 07:18:00,54.1,32.7,25.28,ENE,59,1.0,4.5,44,0.00,,,-99.99,FreeWX 2.04,2013-05-12 13:18:00,
2013-05-12 07:23:00,55.0,32.9,25.28,ENE,59,1.0,2.7,43,0.00,,,-99.99,FreeWX 2.04,2013-05-12 13:23:00,
2013-05-12 07:28:00,55.9,32.5,25.28,North,-999,0.0,2.7,41,0.00,,,-99.99,FreeWX 2.04,2013-05-12 13:28:00,
2013-05-12 07:33:00,56.7,31.3,25.28,NE,54,1.0,4.0,38,0.00,,,-99.99,FreeWX 2.04,2013-05-12 13:33:00,
2013-05-12 07:38:00,57.4,31.3,25.28,NE,47,1.0,3.6,37,0.00,,,-99.99,FreeWX 2.04,2013-05-12 13:38:00,
2013-05-12 07:43:00,57.7,30.9,25.28,NE,37,2.0,4.9,36,0.00,,,-99.99,FreeWX 2.04,2013-05-12 13:43:00,
2013-05-12 07:48:00,57.4,31.3,25.28,North,354,3.0,6.3,37,0.00,,,-99.99,FreeWX 2.04,2013-05-12 13:48:00,
2013-05-12 07:53:00,57.7,30.9,25.28,NW,323,4.0,4.9,36,0.00,,,-99.99,FreeWX 2.04,2013-05-12 13:53:00,
2013-05-12 07:58:00,58.1,30.6,25.31,NNW,329,4.0,5.8,35,0.00,,,-99.99,FreeWX 2.04,2013-05-12 13:58:00,
2013-05-12 08:03:00,57.9,30.4,25.31,NNW,340,4.0,6.3,35,0.00,,,-99.99,FreeWX 2.04,2013-05-12 14:03:00,
2013-05-12 08:08:00,58.3,30.0,25.31,NNW,345,4.0,5.4,34,0.00,,,-99.99,FreeWX 2.04,2013-05-12 14:08:00,
2013-05-12 08:13:00,59.2,29.3,25.31,NNW,343,4.0,4.9,32,0.00,,,-99.99,FreeWX 2.04,2013-05-12 14:13:00,
2013-05-12 08:18:00,59.4,28.8,25.31,NNW,344,3.0,5.4,31,0.00,,,-99.99,FreeWX 2.04,2013-05-12 14:18:00,
2013-05-12 08:23:00,59.7,27.5,25.31,North,349,4.0,5.4,29,0.00,,,-99.99,FreeWX 2.04,2013-05-12 14:23:00,
2013-05-12 08:28:00,61.2,28.6,25.31,North,0,3.0,4.5,29,0.00,,,-99.99,FreeWX 2.04,2013-05-12 14:28:00,
2013-05-12 08:33:00,61.3,27.1,25.31,North,7,2.0,4.9,27,0.00,,,-99.99,FreeWX 2.04,2013-05-12 14:33:00,
2013-05-12 08:38:00,62.1,26.8,25.31,NNE,17,2.0,3.6,26,0.00,,,-99.99,FreeWX 2.04,2013-05-12 14:38:00,
2013-05-12 08:43:00,62.6,27.3,25.28,North,-999,0.0,3.1,26,0.00,,,-99.99,FreeWX 2.04,2013-05-12 14:43:00,
2013-05-12 08:48:00,63.0,26.6,25.28,North,-999,0.0,3.6,25,0.00,,,-99.99,FreeWX 2.04,2013-05-12 14:48:00,
2013-05-12 08:53:00,62.8,26.4,25.28,NNE,27,2.0,5.4,25,0.00,,,-99.99,FreeWX 2.04,2013-05-12 14:53:00,
2013-05-12 08:58:00,62.8,26.4,25.28,NNE,15,3.0,6.3,25,0.00,,,-99.99,FreeWX 2.04,2013-05-12 14:58:00,
2013-05-12 09:03:00,63.3,27.0,25.28,North,9,4.0,6.3,25,0.00,,,-99.99,FreeWX 2.04,2013-05-12 15:03:00,
2013-05-12 09:08:00,63.3,25.9,25.28,North,4,4.0,6.9,24,0.00,,,-99.99,FreeWX 2.04,2013-05-12 15:08:00,
2013-05-12 09:13:00,64.2,25.7,25.28,NNW,346,4.0,7.4,23,0.00,,,-99.99,FreeWX 2.04,2013-05-12 15:13:00,
2013-05-12 09:18:00,65.1,26.4,25.28,NNW,340,4.0,8.3,23,0.00,,,-99.99,FreeWX 2.04,2013-05-12 15:18:00,
2013-05-12 09:23:00,64.4,25.9,25.28,North,350,5.0,10.5,23,0.00,,,-99.99,FreeWX 2.04,2013-05-12 15:23:00,
2013-05-12 09:28:00,64.2,25.7,25.31,North,354,6.0,8.7,23,0.00,,,-99.99,FreeWX 2.04,2013-05-12 15:28:00,
2013-05-12 09:38:00,65.3,26.6,25.31,NNW,340,4.0,6.3,23,0.00,,,-99.99,FreeWX 2.04,2013-05-12 15:38:00,
2013-05-12 09:43:00,65.7,23.5,25.31,NNW,336,4.0,6.9,20,0.00,,,-99.99,FreeWX 2.04,2013-05-12 15:43:00,
2013-05-12 09:48:00,65.8,19.8,25.31,North,350,4.0,6.3,17,0.00,,,-99.99,FreeWX 2.04,2013-05-12 15:48:00,
2013-05-12 09:53:00,66.7,20.5,25.31,North,6,3.0,4.9,17,0.00,,,-99.99,FreeWX 2.04,2013-05-12 15:53:00,
2013-05-12 09:58:00,67.1,20.8,25.28,NNE,12,3.0,6.3,17,0.00,,,-99.99,FreeWX 2.04,2013-05-12 15:58:00,
2013-05-12 10:03:00,67.1,18.0,25.28,North,0,4.0,7.4,15,0.00,,,-99.99,FreeWX 2.04,2013-05-12 16:03:00,
2013-05-12 10:08:00,68.0,18.7,25.28,North,354,3.0,5.8,15,0.00,,,-99.99,FreeWX 2.04,2013-05-12 16:08:00,
2013-05-12 10:13:00,68.0,13.5,25.28,North,356,3.0,5.4,12,0.00,,,-99.99,FreeWX 2.04,2013-05-12 16:13:00,
2013-05-12 10:18:00,68.2,13.6,25.28,North,359,3.0,5.4,12,0.00,,,-99.99,FreeWX 2.04,2013-05-12 16:18:00,
2013-05-12 10:23:00,68.2,13.6,25.28,NNE,19,3.0,7.4,12,0.00,,,-99.99,FreeWX 2.04,2013-05-12 16:23:00,
2013-05-12 10:28:00,69.1,14.4,25.28,NNE,19,3.0,5.4,12,0.00,,,-99.99,FreeWX 2.04,2013-05-12 16:28:00,
2013-05-12 10:33:00,69.8,14.9,25.28,North,3,2.0,4.9,12,0.00,,,-99.99,FreeWX 2.04,2013-05-12 16:33:00,
2013-05-12 10:38:00,70.2,-99.9,25.28,North,1,2.0,5.4,-999,0.00,,,-99.99,FreeWX 2.04,2013-05-12 16:38:00,
2013-05-12 10:43:00,70.3,-99.9,25.28,North,356,3.0,7.8,-999,0.00,,,-99.99,FreeWX 2.04,2013-05-12 16:43:00,
2013-05-12 10:48:00,69.6,-99.9,25.28,NW,305,4.0,7.8,-999,0.00,,,-99.99,FreeWX 2.04,2013-05-12 16:48:00,
2013-05-12 10:53:00,69.3,-99.9,25.28,West,266,4.0,7.8,-999,0.00,,,-99.99,FreeWX 2.04,2013-05-12 16:53:00,
2013-05-12 10:58:00,69.6,-99.9,25.28,West,259,5.0,10.1,-999,0.00,,,-99.99,FreeWX 2.04,2013-05-12 16:58:00,
2013-05-12 11:03:00,70.5,-99.9,25.28,West,277,4.0,6.3,-999,0.00,,,-99.99,FreeWX 2.04,2013-05-12 17:03:00,
2013-05-12 11:08:00,70.9,-99.9,25.28,NW,317,4.0,6.7,-999,0.00,,,-99.99,FreeWX 2.04,2013-05-12 17:08:00,
2013-05-12 11:13:00,71.6,-99.9,25.28,North,349,4.0,6.9,-999,0.00,,,-99.99,FreeWX 2.04,2013-05-12 17:13:00,
2013-05-12 11:18:00,71.6,-99.9,25.28,North,358,4.0,6.9,-999,0.00,,,-99.99,FreeWX 2.04,2013-05-12 17:18:00,
2013-05-12 11:23:00,71.6,-99.9,25.28,SW,217,5.0,8.7,-999,0.00,,,-99.99,FreeWX 2.04,2013-05-12 17:23:00,
2013-05-12 11:28:00,71.6,-99.9,25.28,WSW,254,5.0,7.8,-999,0.00,,,-99.99,FreeWX 2.04,2013-05-12 17:28:00,
2013-05-12 11:33:00,73.2,-99.9,25.28,West,259,4.0,5.4,-999,0.00,,,-99.99,FreeWX 2.04,2013-05-12 17:33:00,
2013-05-12 11:38:00,72.7,-99.9,25.28,WNW,300,3.0,6.9,-999,0.00,,,-99.99,FreeWX 2.04,2013-05-12 17:38:00,
2013-05-12 11:44:00,72.9,-99.9,25.25,North,351,4.0,6.7,-999,0.00,,,-99.99,FreeWX 2.04,2013-05-12 17:44:00,
2013-05-12 11:49:00,72.5,-99.9,25.25,North,350,4.0,7.4,-999,0.00,,,-99.99,FreeWX 2.04,2013-05-12 17:49:00,
2013-05-12 11:54:00,72.9,-99.9,25.25,NNW,346,4.0,8.3,-999,0.00,,,-99.99,FreeWX 2.04,2013-05-12 17:54:00,
2013-05-12 11:59:00,74.3,-99.9,25.25,NNW,345,4.0,8.7,-999,0.00,,,-99.99,FreeWX 2.04,2013-05-12 17:59:00,
2013-05-12 12:04:00,74.5,-99.9,25.25,NNW,335,4.0,8.7,-999,0.00,,,-99.99,FreeWX 2.04,2013-05-12 18:04:00,
2013-05-12 12:09:00,74.7,-99.9,25.25,NNW,341,4.0,6.9,-999,0.00,,,-99.99,FreeWX 2.04,2013-05-12 18:09:00,
2013-05-12 12:14:00,73.9,-99.9,25.25,WNW,297,5.0,8.7,-999,0.00,,,-99.99,FreeWX 2.04,2013-05-12 18:14:00,
2013-05-12 12:19:00,74.7,-99.9,25.25,SSW,211,5.0,7.4,-999,0.00,,,-99.99,FreeWX 2.04,2013-05-12 18:19:00,
2013-05-12 12:24:00,74.7,-99.9,25.25,South,180,5.0,10.1,-999,0.00,,,-99.99,FreeWX 2.04,2013-05-12 18:24:00,
2013-05-12 12:29:00,75.4,-99.9,25.25,SW,217,6.0,8.7,-999,0.00,,,-99.99,FreeWX 2.04,2013-05-12 18:29:00,
2013-05-12 12:34:00,75.0,-99.9,25.25,SW,220,6.0,9.2,-999,0.00,,,-99.99,FreeWX 2.04,2013-05-12 18:34:00,
2013-05-12 12:39:00,74.7,-99.9,25.25,SW,219,6.0,12.1,-999,0.00,,,-99.99,FreeWX 2.04,2013-05-12 18:39:00,
2013-05-12 12:44:00,75.0,-99.9,25.25,SSW,192,5.0,7.4,-999,0.00,,,-99.99,FreeWX 2.04,2013-05-12 18:44:00,
2013-05-12 12:49:00,76.5,-99.9,25.25,South,175,4.0,9.6,-999,0.00,,,-99.99,FreeWX 2.04,2013-05-12 18:49:00,
2013-05-12 12:54:00,76.5,-99.9,25.25,SW,218,6.0,12.5,-999,0.00,,,-99.99,FreeWX 2.04,2013-05-12 18:54:00,
2013-05-12 12:59:00,77.0,-99.9,25.25,SW,221,7.0,13.9,-999,0.00,,,-99.99,FreeWX 2.04,2013-05-12 18:59:00,
2013-05-12 13:04:00,76.8,-99.9,25.25,WSW,240,7.0,15.9,-999,0.00,,,-99.99,FreeWX 2.04,2013-05-12 19:04:00,
2013-05-12 13:09:00,76.6,-99.9,25.25,West,264,7.0,11.2,-999,0.00,,,-99.99,FreeWX 2.04,2013-05-12 19:09:00,
2013-05-12 13:14:00,76.6,-99.9,25.22,WSW,256,8.0,13.4,-999,0.00,,,-99.99,FreeWX 2.04,2013-05-12 19:14:00,
2013-05-12 13:19:00,77.2,-99.9,25.22,SW,221,7.0,10.5,-999,0.00,,,-99.99,FreeWX 2.04,2013-05-12 19:19:00,
2013-05-12 13:24:00,77.5,-99.9,25.22,SSW,207,5.0,9.2,-999,0.00,,,-99.99,FreeWX 2.04,2013-05-12 19:24:00,
2013-05-12 13:29:00,78.3,-99.9,25.22,WSW,253,4.0,9.6,-999,0.00,,,-99.99,FreeWX 2.04,2013-05-12 19:29:00,
2013-05-12 13:34:00,78.8,-99.9,25.22,WSW,238,6.0,14.8,-999,0.00,,,-99.99,FreeWX 2.04,2013-05-12 19:34:00,
2013-05-12 13:39:00,77.9,-99.9,25.22,SSW,205,7.0,11.0,-999,0.00,,,-99.99,FreeWX 2.04,2013-05-12 19:39:00,
2013-05-12 13:44:00,77.7,-99.9,25.22,SW,218,7.0,13.9,-999,0.00,,,-99.99,FreeWX 2.04,2013-05-12 19:44:00,
2013-05-12 13:49:00,77.9,-99.9,25.22,SSW,196,7.0,11.6,-999,0.00,,,-99.99,FreeWX 2.04,2013-05-12 19:49:00,
2013-05-12 13:54:00,78.3,-99.9,25.22,SSW,192,7.0,11.6,-999,0.00,,,-99.99,FreeWX 2.04,2013-05-12 19:54:00,
2013-05-12 13:59:00,79.0,-99.9,25.22,SSE,164,7.0,10.5,-999,0.00,,,-99.99,FreeWX 2.04,2013-05-12 19:59:00,
2013-05-12 14:04:00,79.0,-99.9,25.22,SSE,159,7.0,11.6,-999,0.00,,,-99.99,FreeWX 2.04,2013-05-12 20:04:00,
2013-05-12 14:09:00,79.3,-99.9,25.22,SSE,152,8.0,15.4,-999,0.00,,,-99.99,FreeWX 2.04,2013-05-12 20:09:00,
2013-05-12 14:14:00,79.2,-99.9,25.22,SSE,152,10.0,16.3,-999,0.00,,,-99.99,FreeWX 2.04,2013-05-12 20:14:00,
2013-05-12 14:19:00,79.9,-99.9,25.22,SSE,165,10.0,15.9,-999,0.00,,,-99.99,FreeWX 2.04,2013-05-12 20:19:00,
2013-05-12 14:24:00,79.3,-99.9,25.22,South,184,8.0,12.1,-999,0.00,,,-99.99,FreeWX 2.04,2013-05-12 20:24:00,
2013-05-12 14:29:00,79.9,-99.9,25.22,South,190,6.0,12.5,-999,0.00,,,-99.99,FreeWX 2.04,2013-05-12 20:29:00,
2013-05-12 14:34:00,80.1,-99.9,25.22,South,184,8.0,18.6,-999,0.00,,,-99.99,FreeWX 2.04,2013-05-12 20:34:00,
2013-05-12 14:39:00,79.9,-99.9,25.22,South,184,10.0,14.3,-999,0.00,,,-99.99,FreeWX 2.04,2013-05-12 20:39:00,
2013-05-12 14:44:00,80.2,-99.9,25.22,South,184,8.0,11.6,-999,0.00,,,-99.99,FreeWX 2.04,2013-05-12 20:44:00,
2013-05-12 14:49:00,78.6,-99.9,25.22,SSW,206,7.0,13.9,-999,0.00,,,-99.99,FreeWX 2.04,2013-05-12 20:49:00,
2013-05-12 14:54:00,80.2,-99.9,25.19,South,185,7.0,9.6,-999,0.00,,,-99.99,FreeWX 2.04,2013-05-12 20:54:00,
2013-05-12 14:59:00,81.3,-99.9,25.19,SSE,163,6.0,10.1,-999,0.00,,,-99.99,FreeWX 2.04,2013-05-12 20:59:00,
2013-05-12 15:04:00,80.2,-99.9,25.19,South,185,8.0,15.9,-999,0.00,,,-99.99,FreeWX 2.04,2013-05-12 21:04:00,
2013-05-12 15:09:00,80.2,-99.9,25.19,SSE,167,8.0,12.1,-999,0.00,,,-99.99,FreeWX 2.04,2013-05-12 21:09:00,
2013-05-12 15:14:00,80.6,-99.9,25.19,SE,137,8.0,14.8,-999,0.00,,,-99.99,FreeWX 2.04,2013-05-12 21:14:00,
2013-05-12 15:19:00,79.7,-99.9,25.19,SSE,165,9.0,15.4,-999,0.00,,,-99.99,FreeWX 2.04,2013-05-12 21:19:00,
2013-05-12 15:24:00,79.7,-99.9,25.19,SW,218,10.0,14.8,-999,0.00,,,-99.99,FreeWX 2.04,2013-05-12 21:24:00,
2013-05-12 15:29:00,79.2,-99.9,25.19,WSW,254,7.0,9.2,-999,0.00,,,-99.99,FreeWX 2.04,2013-05-12 21:29:00,
2013-05-12 15:34:00,80.2,-99.9,25.19,SW,223,5.0,16.8,-999,0.00,,,-99.99,FreeWX 2.04,2013-05-12 21:34:00,
2013-05-12 15:39:00,80.6,-99.9,25.19,SSE,165,6.0,16.8,-999,0.00,,,-99.99,FreeWX 2.04,2013-05-12 21:39:00,
2013-05-12 15:44:00,80.8,-99.9,25.19,SSE,160,6.0,9.6,-999,0.00,,,-99.99,FreeWX 2.04,2013-05-12 21:44:00,
2013-05-12 15:49:00,81.0,-99.9,25.19,South,190,9.0,15.9,-999,0.00,,,-99.99,FreeWX 2.04,2013-05-12 21:49:00,
2013-05-12 15:54:00,81.0,-99.9,25.19,SSE,167,10.0,13.9,-999,0.00,,,-99.99,FreeWX 2.04,2013-05-12 21:54:00,
2013-05-12 15:59:00,81.0,-99.9,25.19,SE,128,6.0,8.7,-999,0.00,,,-99.99,FreeWX 2.04,2013-05-12 21:59:00,
2013-05-12 16:04:00,80.2,-99.9,25.19,SSE,155,4.0,10.1,-999,0.00,,,-99.99,FreeWX 2.04,2013-05-12 22:04:00,
2013-05-12 16:09:00,81.3,-99.9,25.19,NNW,346,4.0,6.3,-999,0.00,,,-99.99,FreeWX 2.04,2013-05-12 22:09:00,
2013-05-12 16:14:00,81.7,-99.9,25.19,NE,49,4.0,6.9,-999,0.00,,,-99.99,FreeWX 2.04,2013-05-12 22:14:00,
2013-05-12 16:19:00,80.6,-99.9,25.19,ESE,120,6.0,18.1,-999,0.00,,,-99.99,FreeWX 2.04,2013-05-12 22:19:00,
2013-05-12 16:24:00,79.9,-99.9,25.19,South,175,7.0,12.1,-999,0.00,,,-99.99,FreeWX 2.04,2013-05-12 22:24:00,
2013-05-12 16:29:00,81.0,-99.9,25.19,SSE,153,6.0,11.2,-999,0.00,,,-99.99,FreeWX 2.04,2013-05-12 22:29:00,
2013-05-12 16:34:00,81.3,-99.9,25.19,SSE,150,6.0,9.2,-999,0.00,,,-99.99,FreeWX 2.04,2013-05-12 22:34:00,
2013-05-12 16:39:00,81.0,-99.9,25.16,SSE,155,7.0,14.3,-999,0.00,,,-99.99,FreeWX 2.04,2013-05-12 22:39:00,
2013-05-12 16:44:00,81.9,-99.9,25.16,South,174,8.0,12.1,-999,0.00,,,-99.99,FreeWX 2.04,2013-05-12 22:44:00,
2013-05-12 16:49:00,81.3,-99.9,25.16,South,170,6.0,12.1,-999,0.00,,,-99.99,FreeWX 2.04,2013-05-12 22:49:00,
2013-05-12 16:54:00,81.7,-99.9,25.16,SSE,164,8.0,14.8,-999,0.00,,,-99.99,FreeWX 2.04,2013-05-12 22:54:00,
2013-05-12 16:59:00,81.3,-99.9,25.16,SSE,168,9.0,12.1,-999,0.00,,,-99.99,FreeWX 2.04,2013-05-12 22:59:00,
2013-05-12 17:04:00,81.7,-99.9,25.16,SSE,165,5.0,7.8,-999,0.00,,,-99.99,FreeWX 2.04,2013-05-12 23:04:00,
2013-05-12 17:09:00,81.0,-99.9,25.16,SSW,198,4.0,9.6,-999,0.00,,,-99.99,FreeWX 2.04,2013-05-12 23:09:00,
2013-05-12 17:14:00,80.6,-99.9,25.16,WSW,241,7.0,13.9,-999,0.00,,,-99.99,FreeWX 2.04,2013-05-12 23:14:00,
2013-05-12 17:19:00,80.8,-99.9,25.16,SW,222,8.0,14.3,-999,0.00,,,-99.99,FreeWX 2.04,2013-05-12 23:19:00,
2013-05-12 17:24:00,81.3,-99.9,25.16,SSW,193,8.0,13.4,-999,0.00,,,-99.99,FreeWX 2.04,2013-05-12 23:24:00,
2013-05-12 17:29:00,81.0,-99.9,25.16,SSW,193,9.0,15.2,-999,0.00,,,-99.99,FreeWX 2.04,2013-05-12 23:29:00,
2013-05-12 17:34:00,80.1,-99.9,25.16,South,178,8.0,11.0,-999,0.00,,,-99.99,FreeWX 2.04,2013-05-12 23:34:00,
2013-05-12 17:39:00,79.5,-99.9,25.16,SSE,161,7.0,11.6,-999,0.00,,,-99.99,FreeWX 2.04,2013-05-12 23:39:00,
2013-05-12 17:44:00,80.2,-99.9,25.16,SSE,153,6.0,6.9,-999,0.00,,,-99.99,FreeWX 2.04,2013-05-12 23:44:00,
2013-05-12 17:49:00,80.8,-99.9,25.16,SSE,150,3.0,6.9,-999,0.00,,,-99.99,FreeWX 2.04,2013-05-12 23:49:00,
2013-05-12 17:54:00,81.0,-99.9,25.16,SSE,165,5.0,13.0,-999,0.00,,,-99.99,FreeWX 2.04,2013-05-12 23:54:00,
2013-05-12 17:59:00,80.6,-99.9,25.16,South,178,7.0,12.1,-999,0.00,,,-99.99,FreeWX 2.04,2013-05-12 23:59:00,
2013-05-12 18:04:00,80.2,-99.9,25.16,SSW,192,6.0,8.7,-999,0.00,,,-99.99,FreeWX 2.04,2013-05-13 00:04:00,
2013-05-12 18:09:00,79.9,-99.9,25.16,South,191,6.0,13.4,-999,0.00,,,-99.99,FreeWX 2.04,2013-05-13 00:09:00,
2013-05-12 18:14:00,79.9,-99.9,25.16,South,188,7.0,10.1,-999,0.00,,,-99.99,FreeWX 2.04,2013-05-13 00:14:00,
2013-05-12 18:19:00,79.9,-99.9,25.16,South,189,7.0,9.6,-999,0.00,,,-99.99,FreeWX 2.04,2013-05-13 00:19:00,
2013-05-12 18:24:00,79.9,-99.9,25.16,SSW,192,7.0,9.6,-999,0.00,,,-99.99,FreeWX 2.04,2013-05-13 00:24:00,
2013-05-12 18:29:00,80.1,-99.9,25.16,SSW,196,7.0,9.6,-999,0.00,,,-99.99,FreeWX 2.04,2013-05-13 00:29:00,
2013-05-12 18:34:00,80.2,-99.9,25.16,SSW,197,6.0,7.4,-999,0.00,,,-99.99,FreeWX 2.04,2013-05-13 00:34:00,
2013-05-12 18:39:00,80.1,-99.9,25.16,South,185,5.0,7.8,-999,0.00,,,-99.99,FreeWX 2.04,2013-05-13 00:39:00,
2013-05-12 18:44:00,80.1,-99.9,25.16,SSE,164,5.0,7.8,-999,0.00,,,-99.99,FreeWX 2.04,2013-05-13 00:44:00,
2013-05-12 18:49:00,79.9,-99.9,25.16,SSE,164,6.0,9.2,-999,0.00,,,-99.99,FreeWX 2.04,2013-05-13 00:49:00,
2013-05-12 18:54:00,79.7,-99.9,25.16,South,171,7.0,11.2,-999,0.00,,,-99.99,FreeWX 2.04,2013-05-13 00:54:00,
2013-05-12 18:59:00,79.7,-99.9,25.16,South,174,7.0,8.7,-999,0.00,,,-99.99,FreeWX 2.04,2013-05-13 00:59:00,
2013-05-12 19:04:00,79.9,-99.9,25.16,South,173,6.0,8.3,-999,0.00,,,-99.99,FreeWX 2.04,2013-05-13 01:04:00,
2013-05-12 19:09:00,79.9,-99.9,25.16,SSE,166,6.0,8.7,-999,0.00,,,-99.99,FreeWX 2.04,2013-05-13 01:09:00,
2013-05-12 19:14:00,79.7,-99.9,25.16,SSE,162,6.0,8.3,-999,0.00,,,-99.99,FreeWX 2.04,2013-05-13 01:14:00,
2013-05-12 19:19:00,79.3,-99.9,25.16,SSE,155,5.0,7.4,-999,0.00,,,-99.99,FreeWX 2.04,2013-05-13 01:19:00,
2013-05-12 19:25:00,79.2,-99.9,25.16,SE,139,5.0,9.2,-999,0.00,,,-99.99,FreeWX 2.04,2013-05-13 01:25:00,
2013-05-12 19:30:00,78.8,-99.9,25.16,SE,136,5.0,7.4,-999,0.00,,,-99.99,FreeWX 2.04,2013-05-13 01:30:00,
2013-05-12 19:35:00,78.3,-99.9,25.16,SE,145,5.0,7.8,-999,0.00,,,-99.99,FreeWX 2.04,2013-05-13 01:35:00,
2013-05-12 19:40:00,77.9,-99.9,25.16,SE,140,6.0,7.4,-999,0.00,,,-99.99,FreeWX 2.04,2013-05-13 01:40:00,
2013-05-12 19:45:00,77.5,-99.9,25.16,SE,135,5.0,7.4,-999,0.00,,,-99.99,FreeWX 2.04,2013-05-13 01:45:00,
2013-05-12 19:50:00,77.2,-99.9,25.16,SE,133,4.0,6.3,-999,0.00,,,-99.99,FreeWX 2.04,2013-05-13 01:50:00,
2013-05-12 19:55:00,77.0,-99.9,25.16,ESE,120,4.0,5.8,-999,0.00,,,-99.99,FreeWX 2.04,2013-05-13 01:55:00,
2013-05-12 20:00:00,76.6,-99.9,25.16,ESE,111,4.0,5.8,-999,0.00,,,-99.99,FreeWX 2.04,2013-05-13 02:00:00,
2013-05-12 20:05:00,75.9,-99.9,25.16,ESE,108,4.0,5.8,-999,0.00,,,-99.99,FreeWX 2.04,2013-05-13 02:05:00,
2013-05-12 20:10:00,75.4,-99.9,25.16,ESE,105,4.0,5.4,-999,0.00,,,-99.99,FreeWX 2.04,2013-05-13 02:10:00,
2013-05-12 20:15:00,75.0,-99.9,25.16,ESE,105,4.0,5.8,-999,0.00,,,-99.99,FreeWX 2.04,2013-05-13 02:15:00,
2013-05-12 20:20:00,74.5,-99.9,25.16,ESE,109,4.0,6.3,-999,0.00,,,-99.99,FreeWX 2.04,2013-05-13 02:20:00,
2013-05-12 20:25:00,74.3,-99.9,25.16,ESE,109,4.0,6.7,-999,0.00,,,-99.99,FreeWX 2.04,2013-05-13 02:25:00,
2013-05-12 20:30:00,74.1,-99.9,25.16,ESE,103,4.0,7.4,-999,0.00,,,-99.99,FreeWX 2.04,2013-05-13 02:30:00,
2013-05-12 20:35:00,74.3,-99.9,25.16,ESE,109,4.0,6.7,-999,0.00,,,-99.99,FreeWX 2.04,2013-05-13 02:35:00,
2013-05-12 20:40:00,73.9,-99.9,25.16,ESE,116,3.0,6.3,-999,0.00,,,-99.99,FreeWX 2.04,2013-05-13 02:40:00,
2013-05-12 20:45:00,73.8,-99.9,25.16,ESE,115,3.0,7.8,-999,0.00,,,-99.99,FreeWX 2.04,2013-05-13 02:45:00,
2013-05-12 20:50:00,73.2,-99.9,25.16,ESE,113,3.0,4.9,-999,0.00,,,-99.99,FreeWX 2.04,2013-05-13 02:50:00,
2013-05-12 20:55:00,72.9,-99.9,25.16,ESE,103,2.0,4.9,-999,0.00,,,-99.99,FreeWX 2.04,2013-05-13 02:55:00,
2013-05-12 21:00:00,72.5,-99.9,25.16,East,90,2.0,4.9,-999,0.00,,,-99.99,FreeWX 2.04,2013-05-13 03:00:00,
2013-05-12 21:05:00,72.7,-99.9,25.16,East,99,3.0,5.8,-999,0.00,,,-99.99,FreeWX 2.04,2013-05-13 03:05:00,
2013-05-12 21:10:00,73.2,-99.9,25.16,ESE,113,4.0,8.3,-999,0.00,,,-99.99,FreeWX 2.04,2013-05-13 03:10:00,
2013-05-12 21:15:00,73.0,-99.9,25.16,ESE,109,5.0,7.4,-999,0.00,,,-99.99,FreeWX 2.04,2013-05-13 03:15:00,
2013-05-12 21:20:00,72.7,-99.9,25.16,ESE,108,4.0,5.8,-999,0.00,,,-99.99,FreeWX 2.04,2013-05-13 03:20:00,
2013-05-12 21:25:00,72.5,-99.9,25.16,ESE,114,3.0,4.0,-999,0.00,,,-99.99,FreeWX 2.04,2013-05-13 03:25:00,
2013-05-12 21:31:00,72.3,-99.9,25.16,ESE,118,3.0,9.6,-999,0.00,,,-99.99,FreeWX 2.04,2013-05-13 03:31:00,
2013-05-12 21:36:00,72.5,-99.9,25.16,ESE,116,5.0,8.7,-999,0.00,,,-99.99,FreeWX 2.04,2013-05-13 03:36:00,
2013-05-12 21:41:00,72.3,-99.9,25.16,ESE,110,5.0,8.7,-999,0.00,,,-99.99,FreeWX 2.04,2013-05-13 03:41:00,
2013-05-12 21:46:00,72.0,-99.9,25.16,ESE,103,5.0,8.3,-999,0.00,,,-99.99,FreeWX 2.04,2013-05-13 03:46:00,
2013-05-12 21:51:00,71.8,-99.9,25.16,East,101,5.0,7.8,-999,0.00,,,-99.99,FreeWX 2.04,2013-05-13 03:51:00,
2013-05-12 21:56:00,71.4,-99.9,25.19,SE,132,5.0,10.5,-999,0.00,,,-99.99,FreeWX 2.04,2013-05-13 03:56:00,
2013-05-12 22:01:00,71.1,-99.9,25.19,South,178,6.0,8.7,-999,0.00,,,-99.99,FreeWX 2.04,2013-05-13 04:01:00,
2013-05-12 22:06:00,70.2,-99.9,25.19,South,188,6.0,9.2,-999,0.00,,,-99.99,FreeWX 2.04,2013-05-13 04:06:00,
2013-05-12 22:11:00,70.3,-99.9,25.19,South,181,6.0,8.3,-999,0.00,,,-99.99,FreeWX 2.04,2013-05-13 04:11:00,
2013-05-12 22:16:00,70.0,-99.9,25.19,South,179,6.0,6.3,-999,0.00,,,-99.99,FreeWX 2.04,2013-05-13 04:16:00,
2013-05-12 22:21:00,69.6,-99.9,25.19,South,185,4.0,5.4,-999,0.00,,,-99.99,FreeWX 2.04,2013-05-13 04:21:00,
2013-05-12 22:26:00,69.3,-99.9,25.19,South,188,2.0,3.6,-999,0.00,,,-99.99,FreeWX 2.04,2013-05-13 04:26:00,
2013-05-12 22:31:00,68.9,-99.9,25.19,South,188,1.0,3.1,-999,0.00,,,-99.99,FreeWX 2.04,2013-05-13 04:31:00,
2013-05-12 22:36:00,68.5,-99.9,25.19,South,188,2.0,4.5,-999,0.00,,,-99.99,FreeWX 2.04,2013-05-13 04:36:00,
2013-05-12 22:41:00,68.5,-99.9,25.19,South,188,2.0,4.5,-999,0.00,,,-99.99,FreeWX 2.04,2013-05-13 04:41:00,
2013-05-12 22:46:00,68.5,-99.9,25.19,South,188,2.0,3.6,-999,0.00,,,-99.99,FreeWX 2.04,2013-05-13 04:46:00,
2013-05-12 22:51:00,68.2,-99.9,25.19,South,187,1.0,3.6,-999,0.00,,,-99.99,FreeWX 2.04,2013-05-13 04:51:00,
2013-05-12 22:56:00,67.8,-99.9,25.19,North,-999,0.0,0.0,-999,0.00,,,-99.99,FreeWX 2.04,2013-05-13 04:56:00,
2013-05-12 23:01:00,67.3,-99.9,25.19,North,-999,0.0,0.0,-999,0.00,,,-99.99,FreeWX 2.04,2013-05-13 05:01:00,
2013-05-12 23:06:00,67.5,-99.9,25.19,North,-999,0.0,0.0,-999,0.00,,,-99.99,FreeWX 2.04,2013-05-13 05:06:00,
2013-05-12 23:11:00,67.1,-99.9,25.19,North,-999,0.0,3.1,-999,0.00,,,-99.99,FreeWX 2.04,2013-05-13 05:11:00,
2013-05-12 23:16:00,66.9,-99.9,25.19,South,181,1.0,5.4,-999,0.00,,,-99.99,FreeWX 2.04,2013-05-13 05:16:00,
2013-05-12 23:21:00,66.6,-99.9,25.19,SSE,167,1.0,4.9,-999,0.00,,,-99.99,FreeWX 2.04,2013-05-13 05:21:00,
2013-05-12 23:26:00,66.0,-99.9,25.19,SSE,157,1.0,4.0,-999,0.00,,,-99.99,FreeWX 2.04,2013-05-13 05:26:00,
2013-05-12 23:31:00,65.8,-99.9,25.19,SSE,156,1.0,3.6,-999,0.00,,,-99.99,FreeWX 2.04,2013-05-13 05:31:00,
2013-05-12 23:36:00,65.5,-99.9,25.19,SSE,150,1.0,4.0,-999,0.00,,,-99.99,FreeWX 2.04,2013-05-13 05:36:00,
2013-05-12 23:41:00,65.3,-99.9,25.19,SE,137,1.0,4.9,-999,0.00,,,-99.99,FreeWX 2.04,2013-05-13 05:41:00,
2013-05-12 23:46:00,65.3,-99.9,25.19,SE,124,2.0,4.5,-999,0.00,,,-99.99,FreeWX 2.04,2013-05-13 05:46:00,
2013-05-12 23:51:00,65.1,-99.9,25.19,ESE,119,1.0,3.6,-999,0.00,,,-99.99,FreeWX 2.04,2013-05-13 05:51:00,
2013-05-12 23:56:00,64.9,-99.9,25.19,ESE,120,1.0,4.0,-999,0.00,,,-99.99,FreeWX 2.04,2013-05-13 05:56:00,